Du Bois, PA

2:48 AM EDT on May 29, 2017 (GMT -0400)
Du Bois-Jefferson County

Weather History for KDUJ - May, 2012

Change the Weather History Date:

Wednesday, May 2, 2012

  Actual Average Record
Temperature  
Mean Temperature 66 °F 52 °F  
Max Temperature 77 °F 64 °F 81 °F (1965)
Min Temperature 54 °F 41 °F 29 °F (1963)
Degree Days  
Heating Degree Days 0 13  
Month to date heating degree days 3 26  
Since 1 July heating degree days 5104 6539  
Cooling Degree Days 1 0  
Month to date cooling degree days 1 0  
Year to date cooling degree days 6 4  
Growing Degree Days 14 (Base 50)    
Moisture  
Dew Point 57 °F    
Average Humidity 79    
Maximum Humidity 93    
Minimum Humidity 64    
Precipitation  
Precipitation 0.01 in 0.11 in 1.66 in (1972)
Month to date precipitation 0.04 0.23  
Sea Level Pressure  
Sea Level Pressure 30.01 in    
Wind  
Wind Speed 7 mph (SW)    
Max Wind Speed 16 mph    
Max Gust Speed 20 mph    
Visibility 10 miles    
Events Rain    
T = Trace of Precipitation, MM = Missing Value Source: NWS Daily Summary

Daily Weather History Graph

Daily Weather History Graph

Search for Another Location

Airport or City:

Trip Planner

Search our weather history database for the weather conditions in past years. The results will help you decide how hot, cold, wet, or windy it might be!

Date:

Astronomy

May. 02, 2012 Rise Set
Actual Time 6:11 AM EDT 8:14 PM EDT
Civil Twilight 5:41 AM EDT 8:44 PM EDT
Nautical Twilight 5:04 AM EDT 9:21 PM EDT
Astronomical Twilight 4:24 AM EDT 10:01 PM EDT
Moon 4:22 PM EDT (5/2) 3:42 AM EDT (5/2)
Length of Visible Light 15h 03m
Length of Day
14h 02m
Waxing Gibbous, 83% of the Moon is Illuminated
May 2
Waxing Gibbous
May 5
Full
May 12
Last Quarter
May 20
New
May 28
First Quarter

Hourly Weather History & Observations

Time (EDT) Temp. Dew Point Humidity Pressure Visibility Wind Dir Wind Speed Gust Speed Precip Events Conditions
12:56 AM 55.9 °F 51.1 °F 84% 29.99 in 10.0 mi East 8.1 mph - N/A   Scattered Clouds
1:56 AM 54.0 °F 51.1 °F 90% 29.99 in 10.0 mi East 5.8 mph - N/A   Mostly Cloudy
2:56 AM 55.9 °F 51.1 °F 84% 29.98 in 10.0 mi ESE 4.6 mph - N/A   Overcast
3:56 AM 55.9 °F 50.0 °F 80% 29.98 in 10.0 mi ESE 4.6 mph - N/A   Mostly Cloudy
4:56 AM 55.0 °F 51.1 °F 86% 29.98 in 10.0 mi Calm Calm - N/A   Mostly Cloudy
5:56 AM 55.9 °F 51.1 °F 84% 29.99 in 10.0 mi Calm Calm - N/A   Overcast
6:06 AM 55.4 °F 51.8 °F 88% 30.01 in 10.0 mi Calm Calm - N/A   Overcast
6:14 AM 55.4 °F 51.8 °F 88% 30.01 in 10.0 mi Calm Calm - N/A   Overcast
6:56 AM 55.9 °F 54.0 °F 93% 30.00 in 3.0 mi South 3.5 mph - 0.01 in Rain Light Rain
7:54 AM 57.2 °F 57.2 °F 100% 30.03 in 8.0 mi SW 8.1 mph - 0.00 in   Overcast
7:56 AM 57.9 °F 57.0 °F 97% 30.02 in 8.0 mi SW 6.9 mph - 0.00 in   Overcast
8:36 AM 60.8 °F 57.2 °F 88% 30.05 in 10.0 mi WSW 4.6 mph - N/A   Overcast
8:56 AM 61.0 °F 57.9 °F 90% 30.04 in 10.0 mi SW 8.1 mph - N/A   Overcast
9:11 AM 60.8 °F 57.2 °F 88% 30.05 in 10.0 mi SW 9.2 mph - N/A   Overcast
9:49 AM 64.4 °F 57.2 °F 77% 30.05 in 10.0 mi SW 9.2 mph - N/A   Mostly Cloudy
9:56 AM 64.0 °F 57.0 °F 78% 30.04 in 10.0 mi WSW 9.2 mph - N/A   Mostly Cloudy
10:14 AM 64.4 °F 57.2 °F 77% 30.05 in 10.0 mi West 8.1 mph - N/A   Overcast
10:56 AM 64.0 °F 57.0 °F 78% 30.04 in 10.0 mi SW 9.2 mph 17.3 mph N/A   Overcast
11:56 AM 64.9 °F 57.9 °F 78% 30.03 in 10.0 mi SW 6.9 mph - N/A   Overcast
12:56 PM 68.0 °F 59.0 °F 73% 30.01 in 10.0 mi SSW 5.8 mph - N/A   Overcast
1:56 PM 69.1 °F 60.1 °F 73% 30.01 in 10.0 mi SW 9.2 mph - N/A   Overcast
2:56 PM 71.1 °F 61.0 °F 70% 30.01 in 10.0 mi WSW 9.2 mph - N/A   Overcast
3:32 PM 73.4 °F 62.6 °F 69% 30.02 in 10.0 mi Variable 4.6 mph - N/A   Scattered Clouds
4:56 PM 75.9 °F 62.1 °F 62% 29.98 in 10.0 mi SSW 9.2 mph 17.3 mph N/A   Scattered Clouds
5:56 PM 75.9 °F 62.1 °F 62% 29.96 in 10.0 mi South 9.2 mph - N/A   Clear
6:56 PM 75.0 °F 62.1 °F 64% 29.97 in 10.0 mi South 3.5 mph - N/A   Partly Cloudy
7:56 PM 73.9 °F 61.0 °F 64% 29.96 in 10.0 mi SW 6.9 mph - N/A   Scattered Clouds
8:56 PM 73.0 °F 61.0 °F 66% 29.97 in 10.0 mi SSW 6.9 mph - N/A   Partly Cloudy
9:56 PM 72.0 °F 60.1 °F 66% 29.98 in 10.0 mi SW 9.2 mph - N/A   Scattered Clouds
10:56 PM 71.1 °F 60.1 °F 68% 30.00 in 10.0 mi WSW 10.4 mph - N/A   Mostly Cloudy
11:56 PM 70.0 °F 60.1 °F 71% 30.01 in 10.0 mi WSW 6.9 mph - N/A   Partly Cloudy